sat.trackr.live / text

‹ back to catalog

SENTINEL-2B

NORAD 42063 · 2017-013A

PAYLOAD ACTIVE UNKNOWN

§ Identity

Operator
Country
ESA
Launch date
2017-03-07
Launch site
FRGUI
Launch vehicle
Mass (kg)
RCS (m²)
2.51

Purposes: earth_obs

External: N2YO · Heavens-Above · Gunter

§ Orbital elements

Epoch: 2026-09-20T04:08:26.784672Z

Period
100.64 min
Inclination
98.5708°
Eccentricity
0.0001196
Mean motion
14.30815652 rev/d
Perigee alt
788.1 km
Apogee alt
789.9 km
Semi-major
7,167.1 km
B*
7.9495e-5
RAAN
336.5798°
Arg perigee
86.1088°
Mean anomaly
274.0232°
Rev number
49,822

§ Raw data

SENTINEL-2B1 42063U 17013A   26263.17253223  .00000165  00000+0  79495-4 0  99902 42063  98.5708 336.5798 0001196  86.1088 274.0232 14.30815652498223

JSON: /api/v1/satellites/42063 · /tle

For live sub-satellite position, see the globe view (requires WebGL).

§ Visibility from observer

Set your observer location to see the next 7 days of passes ≥ 10°. The values pass through the URL so the page stays shareable.

No JS? Fill the form by hand. The geolocation button needs JavaScript.